Overview Statistics Trail Chart Weather Telemetry Raw packets
 

This is the latest recevied weather packets stored in our database for station/object LU1MQF-13. If no packets are shown the sender has not sent any weather packets the latest 10 day(s).

<< 8 9 10 11 12 13 14 >>
Time Temp. Humidity Pressure Rain* Wind** Luminosity Snow
1777817523 17.22° C 36% 938.1 hPa - - - -
1777816623 16.11° C 37% 938.1 hPa - - - -
1777815723 16.11° C 38% 938.4 hPa - - - -
1777814823 13.89° C 38% 938.5 hPa - - - -
1777813924 13.89° C 37% 938.5 hPa - - - -
1777813024 12.78° C 36% 938.8 hPa - - - -
1777812123 12.78° C 35% 939 hPa - - - -
1777811223 12.78° C 35% 938.8 hPa - - - -
1777810324 12.78° C 35% 938.7 hPa - - - -
1777809423 12.22° C 35% 938.7 hPa - - - -
1777807623 12.22° C 35% 938.5 hPa - - - -
1777806723 12.22° C 35% 938.7 hPa - - - -
1777805823 12.22° C 35% 938.9 hPa - - - -
1777804923 12.22° C 35% 939 hPa - - - -
1777804023 12.22° C 35% 938.7 hPa - - - -
1777803123 12.22° C 35% 938.4 hPa - - - -
1777802223 12.22° C 35% 938.6 hPa - - - -
1777801323 12.22° C 35% 938.9 hPa - - - -
1777800423 12.22° C 35% 939.2 hPa - - - -
1777799523 12.22° C 35% 939.6 hPa - - - -
1777798623 12.22° C 35% 939.2 hPa - - - -
1777797729 12.78° C 35% 939.5 hPa - - - -
1777796823 12.78° C 35% 939.7 hPa - - - -
1777795923 12.78° C 35% 939.7 hPa - - - -
1777795022 12.78° C 35% 939.8 hPa - - - -

* Rain since midnight (hover to see other rain measurements)
** Current wind speed in m/s (hover to see current wind gust speed)